Showing default

ASTROCAST-0404, 55112

Orbit data source: Space-Track

ASTROCAST-0404, 55112 is a payload satellite owned by Astrocast (CH) in SSO that was launched on Tue, 03 Jan 2023 UTC via an FALCON 9 launch vehicle from the Air Force Eastern Test Range (AFETR). Payload-class satellites include a variety of spacecraft equipped with specific instruments for various scientific and technological missions. These include communications satellites like Starlink; space stations such as the ISS; scientific satellites like the Hubble; Earth observation satellites from companies like Planet Labs, Umbra, and HawkEye 360; GPS; miniature CubeSats for education and research; and military/defense satellites.

Loading next visibility...
Identifier
55112, 2023-001DH
Orbit
SSO
Country
Flag of UnknownUnknown / SWTZ
Related business
Manufacturer
Astrocast
Mission
Operational Commercial Communications
Bus & Motor
CUBESAT 3U, Unknown motor
Mass
4.5 kg wet, 4.5 kg dry
Launch date (UTC)
2023-01-03 (3 years ago)
Launch vehicle
FALCON 9
Launch site
Air Force Eastern Test Range (AFETR)
Object type
Payload
Rocket body
Debris
Shape & HBR
Box, 0.1 m
Radar Cross Section
0.035 m², Medium (>0.1 m² and < 1m²)

Expand to show TLE details & history
Last TLE update: 16 hours ago

TLE from 16 hours ago
0 ASTROCAST-0404
1 55112U 23001DH  25286.68435918  .00009633  00000-0  41036-3 0  9995
2 55112  97.5775  12.7763 0008585 138.2127 221.9766 15.23147454106941
Epoch: 2025-10-13T16:25Z
TLE epoch observation values (Epoch: 2025-10-13T16:25:28.633Z)
Latitude
-0.00003°
Longitude
103.92339°
Altitude
503.834 km
Speed
7.61 km/s
True Right ascension
00h 51m 06s
True Declination
0° 00' 00"
Sunlit
Object was in full shadow at epoch
Visualization orbit readout
Latitude
Unknown
Longitude
Unknown
Altitude
Unknown
Speed
Unknown
Apparent Right ascension
Unknown
Apparent Declination
Unknown
Sunlit
N/A
Visualization observer readout
Local Sidereal Time
02:54:07
Azimuth
Unknown
Elevation
Unknown
Doppler factor
Unknown
Orbital elements
Apogee altitude
499.222 km
Perigee altitude
487.424 km
Semi-major axis
6,871.46 km
Eccentricity
0.00086
Inclination
97.5775°
RAAN
12.7763°
Arg. of periapsis
138.2127°
True anomaly
221.91086°
Mean anomaly
221.9766°
Eccentric anomaly
221.94372°
Mean motion
3.81039 °/min
Orbital period
94.48 mins
BSTAR
0.00041036
Loading maneuver chart data...
Computing Atmospheric mass density...
Loading historical data...
Loading historical data...
Loading historical data...
Loading historical data...
Loading historical data...
Loading historical data...
Loading historical data...

Documentation

Showing up to 5 results
|